Location: Spruce Knob
(38.6995°N, 79.5330°W)
Time: 17:17:23
(UTC-05:00)

BlueWalker 3 - Pass Details

Date: 12 December 2022
Orbit: 499 x 517 km, 53.2° (Epoch: 28 January)

Event Time Altitude Azimuth Distance (km) Brightness Sun altitude
Rises 19:06:15 0° 297° (WNW) 2,616 6.4 -24.4°
Reaches altitude 10° 19:08:56 10° 278° (W) 1,722 5.6 -24.9°
Maximum altitude 19:11:41 19° 233° (SW) 1,263 4.6 -25.5°
Drops below altitude 10° 19:14:25 10° 188° (S) 1,704 4.8 -26.0°
Enters shadow 19:15:05 - 181° (S) 1,904 5.0 -26.1°
